Regional Weather Roundup
Issued by NWS Northern Indiana

Home | Current Version | Previous Version | Graphics & Text | Print | Product List | Glossary On
Versions: 1 2 3 4 5 6 7 8 9 10 11 12 13 14 15 16 17 18 19 20 21 22 23 24 25 26 27 28 29 30 31 32 33 34 35 36 37 38 39 40 41 42 43 44 45 46 47 48 49 50
437
ASUS43 KIWX 060210
RWRIWX

KIWX WEATHER ROUNDUP
NATIONAL WEATHER SERVICE NORTHERN INDIANA
900 PM EST MON DEC 05 2016

NOTE: "FAIR" INDICATES FEW OR NO CLOUDS BELOW 12,000 FEET WITH NO
SIGNIFICANT WEATHER AND/OR OBSTRUCTIONS TO VISIBILITY.

* THESE STATIONS ARE NOT UNDER NWS QUALITY CONTROL. THEY ALSO MAY NOT
  REPORT WEATHER SUCH AS PRECIPITATION OR FOG.

INZ001>027-060300-
NORTHERN INDIANA

CITY           SKY/WX    TMP DP  RH WIND       PRES   REMARKS
GARY*          CLOUDY    34  32  93 SE6       29.98F WCI  29
VALPARAISO     CLOUDY    33  30  88 E10       29.99F WCI  25
MICHIGAN CITY* CLOUDY    32  32 100 E3        29.99F
LAPORTE*       CLOUDY   N/A N/A N/A E9        29.99F HAZE
KNOX*          CLEAR     32  21  64 E6        29.99F WCI  26
SOUTH BEND     CLOUDY    31  29  92 SE8       30.01F WCI  23
ELKHART*       CLOUDY    32  30  93 E7        30.01F WCI  26
GOSHEN         PTCLDY    31  27  85 E7        30.01S WCI  24
MONTICELLO*    CLEAR     33  29  86 E3        29.96F
LOGANSPORT*    CLEAR     32  30  93 E7        29.98F WCI  26
ROCHESTER*     CLEAR     32  32 100 E7        29.98F WCI  26
WARSAW*        CLEAR     32  28  86 E6        30.00F WCI  26
ANGOLA*        CLEAR     30  28  93 SE5       30.01S WCI  25
FORT WAYNE     PTCLDY    29  26  89 E6        30.01F WCI  23
HUNTINGTON*    CLEAR     31  30  96 E6        29.99F WCI  25
PERU/GRISSOM   CLEAR     33  32  99 E6        29.96F WCI  27
MARION*        CLEAR     32  31  95 E6        29.99F WCI  27

$$
INZ028>050-060300-
CENTRAL INDIANA

CITY           SKY/WX    TMP DP  RH WIND       PRES   REMARKS
LAFAYETTE      CLEAR     33  32  96 E8        29.95F WCI  26
KOKOMO*        CLEAR     33  31  92 E7        29.98F WCI  27
MUNCIE*        CLEAR     33  29  85 E7        29.98F WCI  27
INDIANAPOLIS   MOCLDY    37  32  82 E9        29.94F

$$
MIZ043>046-050>051-056>058-064>065-071>073-077>080-060300-
SOUTHWEST LOWER MICHIGAN

CITY           SKY/WX    TMP DP  RH WIND       PRES   REMARKS
BATTLE CREEK   PTCLDY    31  29  92 S6        30.04R WCI  25
BENTON HARBOR  CLOUDY    33  29  85 SE9       30.01F FOG     WCI  25
COLDWATER*     CLEAR     30  28  91 CALM      30.02F
HILLSDALE*     CLOUDY    28  28 100 CALM      30.01F FOG
HOLLAND        CLOUDY    33  29  85 SE7       30.03R WCI  27
GRAND RAPIDS   MOCLDY    31  27  85 S6        30.04R WCI  25
KALAMAZOO      CLOUDY    32  27  81 SE6       30.04R WCI  26
STURGIS*       CLOUDY    31  29  90 SE6       30.01F WCI  26
THREE RIVERS*  CLOUDY    32  30  92 E5        30.03F WCI  27

$$
OHZ001>008-015>018-024>025-060300-
NORTHWEST OHIO

CITY           SKY/WX    TMP DP  RH WIND       PRES   REMARKS
WAUSEON*       FAIR      28  28 100 E5        30.04F FOG     WCI  23
DEFIANCE       CLEAR     30  25  81 E3        30.05S HAZE
FINDLAY        CLEAR     31  26  82 E6        30.03F WCI  25
TOLEDO EXPRESS CLEAR     28  28 100 CALM      30.05F
TOLEDO METCALF CLEAR     31  28  89 E5        30.07F WCI  26
LIMA           CLEAR     30  28  92 E7        30.01F WCI  23

$$
AND FOR LAKE MICHIGAN COASTAL AND OPEN LAKE BUOY OBSERVATIONS

STATION/POSITION TEMP    WIND        PRES    VSBY  WAVE
                 AIR SEA DIR/SP/G                  HT/PER
                 (F)     (DEG/KT/KT) (MB)    (MI)  (FT/S)
CALUMET HARBOR    33     130/  5/  8 1014.7F
BURNS HARBOR      33     120/  7/ 14 1016.3
SAINT JOSEPH      33     210/  1/  6 1017.6

$$
&&




USA.gov is the U.S. government's official web portal to all federal, state and local government web resources and services.